Terug naar catalogus

BREEZE-M DEB

ActiefHEO
NORAD 34230·DEBRIS·🇷🇺 Russia

Gelanceerd Feb 28, 2006 vanaf Baikonur Cosmodrome

Loading…

Volgende Passages (komende 24 uur)

TLE

VersSource: Space-Track

Epoch: Sep 13, 2026, 10:06 UTC

1 34230U 06006AV  26256.42100232  .00001133  00000-0  13775-2 0  9992
2 34230  51.7801 342.9163 4986908 132.7189 281.8266  5.44627326 44649

Volg BREEZE-M DEB in realtime met AllMySat

Download on the App Store